Find Starlink 11595

NORAD ID: 63669 Int'l Des: 2025-085 Owner: SPXS Country: US Constellation: starlink operational
別名: STARLINK-11595 [DTC] celestrak
LEOCIRCULAR

現在のビュー

3D地球を読み込み中...

About Starlink 11595

Starlink 11595 (NORAD 63669) is a starlink constellation satellite (v2 mini d2c) launched Apr 28, 2025 by SPXS of US. It operates in LEO, CIRCULAR orbit with a mass of 960.00 kg.

次回通過

Passes for default location (London). Set your location on the main map for personalized predictions.

高度履歴

Loading altitude history...

軌道要素

1 63669U 25085F 26221.31809781 .00174633 00000-0 13327-2 0 9992
2 63669 43.0010 78.6643 0000630 309.8204 50.2608 15.70900615 74892
Epoch: Aug 9, 2026 • Age: 24 hours

現在のステータス

高度 358.5 km
遠地点 / 近地点 N/A
速度 7.70 km/s
衛星直下点 -17.06°S, 24.45°W
打ち上げ日 Apr 28, 2025
運用期間 1.2 years
タイプ internet

技術仕様

分類 Payload
質量 960.00 kg
乾燥質量 910.00 kg
総質量 960.00 kg
長さ 0.30 m
直径 4.10 m
スパン 29.00 m
形状 Box + pan
製造者 SPXS
バスタイプ Starlink V2MD
フェーズステータス In Orbit
所有者/国 SPXS/US

Most Searched